Location: Embarras
(53.3000°N, 116.9000°W)
Time: 21:46:56
(UTC+00:00)

BlueWalker 3 - Visible Passes

Search period start: 10 June 2023 00:00
Search period end: 20 June 2023 00:00
Orbit: 493 x 513 km, 53.2° (Epoch: 09 June)

Date Brightness Start Highest point End Pass type
(mag) Time Alt. Az. Time Alt. Az. Time Alt. Az.
10 Jun 3.2 06:31:17 10° W 06:34:28 24° SW 06:36:05 19° S visible
11 Jun 3.3 06:10:50 10° W 06:13:58 24° SW 06:16:01 16° S visible
12 Jun 3.4 05:50:22 10° W 05:53:29 23° SW 05:55:59 13° S visible
13 Jun 3.5 05:29:54 10° W 05:33:00 23° SW 05:36:00 10° SSE visible
14 Jun 3.5 05:09:25 10° W 05:12:28 23° SW 05:15:32 10° SSE visible
